Terug naar catalogus

ONEWEB-0461

ActiefCommunicatiePO
NORAD 51649·PAYLOAD·🇬🇧 United Kingdom

Gelanceerd Feb 10, 2022 vanaf Guiana Space Centre

Loading…

Volgende Passages (komende 24 uur)

TLE

VersSource: CelesTrak SupGP

Epoch: Sep 14, 2026, 18:45 UTC

1 51649C 22012AD  26257.78140463 -.00001002  00000+0 -25833-2 0  2571
2 51649  87.9207 348.0696 0001782 105.2782   6.5852 13.17654319    16

Volg ONEWEB-0461 in realtime met AllMySat

Download on the App Store